Temperature
11 11 12 12 12 11 12 13 13 15 15 18 19 19 18 18 18 18 19 19 19 18 17 16 16 17 16 17 16 16 16 16 16 16 16 16 16 16 16 15 15 16 16 16 15 15 16 16 16
10 11 11 11 11 11 12 13 13 15 17 18 18 18 18 18 19 19 18 18 18 17 17 16 16 16 16 16 16 16 16 16 16 16 16 16 16 16 16 16 16 16 16 16 16 16 16 16 16
10 10 11 10 11 12 12 13 14 16 17 17 17 18 18 18 18 18 18 18 17 17 17 16 16 16 16 16 16 16 16 16 16 16 16 16 16 16 16 16 16 16 16 16 16 16 16 16 16
9 10 10 10 11 12 13 13 14 15 16 17 17 17 18 18 18 18 18 17 17 17 16 16 16 16 16 16 16 16 16 16 16 16 16 16 16 16 16 16 16 16 16 16 16 16 16 16 16
9 9 9 10 10 11 12 14 15 15 15 16 17 16 17 17 17 17 17 17 17 16 16 16 16 16 16 16 16 16 16 16 16 16 16 16 16 16 16 16 16 16 16 16 16 16 16 16 16
9 9 9 9 10 11 12 14 15 14 15 16 16 16 17 17 17 17 17 17 17 16 16 16 16 16 16 16 16 16 16 16 16 16 16 16 16 16 16 16 16 16 16 16 16 16 16 16 16
8 8 9 9 10 11 13 14 14 13 14 15 16 15 16 17 17 16 16 16 16 16 16 16 16 16 16 16 16 16 16 16 16 16 16 16 16 16 16 16 16 16 16 16 16 16 16 16 16
8 8 8 9 10 11 13 14 14 14 14 15 15 15 15 16 16 16 16 16 16 16 16 16 15 15 15 16 16 16 16 16 16 16 16 16 16 16 16 16 16 16 16 16 16 16 16 16 16
8 7 8 9 10 11 12 13 13 14 14 14 15 15 15 15 16 16 15 15 15 15 15 15 15 15 15 15 15 16 16 16 16 16 16 16 16 16 16 16 16 16 16 16 16 16 16 16 16
7 7 8 9 10 10 11 12 12 13 13 13 14 15 15 15 15 15 15 15 15 15 15 15 15 15 15 15 15 15 15 15 16 16 16 16 16 16 16 16 16 16 16 16 16 16 16 16 16
7 7 8 9 10 10 10 11 12 12 12 12 12 13 14 14 15 15 15 15 15 15 15 15 15 15 15 15 15 15 15 15 15 16 16 16 16 16 16 16 16 16 16 16 16 16 16 15 15
7 7 8 9 9 10 10 10 11 11 12 13 13 13 13 14 14 15 15 15 15 15 15 15 15 15 15 15 15 15 15 15 15 15 16 16 16 16 16 16 16 16 16 16 16 15 15 15 15
7 7 8 9 9 9 10 10 10 10 11 12 13 13 13 14 14 14 15 15 15 15 15 15 15 15 15 15 15 15 15 15 15 15 15 16 16 16 16 16 16 16 16 16 15 15 15 15 15
7 7 8 8 9 9 9 10 10 10 11 12 12 12 13 13 14 14 14 15 15 15 15 15 15 15 15 15 15 15 15 15 15 15 15 15 16 16 16 16 16 16 15 15 15 15 15 15 15
7 7 8 8 8 9 9 10 10 10 11 11 12 12 12 13 13 14 14 14 15 15 15 15 15 15 15 15 15 15 15 15 15 15 15 15 15 15 15 16 16 15 15 15 15 15 15 15 14
7 7 7 8 8 9 9 9 10 11 11 11 11 12 12 13 13 14 14 14 14 15 15 15 15 15 15 15 15 15 15 15 15 15 15 15 15 15 15 15 15 15 15 15 15 14 14 14 14
6 6 7 8 8 8 8 9 10 10 11 11 11 12 12 13 13 14 14 14 14 14 14 14 15 15 15 15 15 15 15 15 15 15 15 15 15 15 15 15 15 15 15 14 14 14 14 14 14
6 6 6 7 8 8 8 8 9 10 10 10 11 11 12 13 13 14 14 14 14 14 14 14 14 15 14 14 14 15 15 15 15 14 15 15 15 15 15 15 14 14 14 14 14 14 14 13 13
6 6 6 7 7 8 8 8 8 9 9 10 10 11 12 13 13 13 14 14 14 14 14 14 15 15 14 14 14 14 14 15 14 14 14 14 14 14 14 14 14 14 14 14 13 13 13 13 13
6 6 6 7 8 8 7 8 8 9 9 10 10 11 12 12 13 13 14 14 14 14 14 14 14 14 14 14 14 15 14 15 15 14 14 14 14 14 14 14 14 14 14 13 13 13 13 13 13
6 6 6 7 7 7 7 8 8 8 9 10 10 11 11 12 13 13 13 14 14 14 14 14 14 14 14 14 14 14 14 14 14 14 14 14 14 14 14 14 14 14 13 13 13 13 13 13 13
6 6 7 7 6 6 7 7 7 8 8 9 9 10 11 12 12 13 14 14 14 14 14 14 14 14 14 14 14 14 14 14 14 14 14 14 14 14 14 14 13 13 13 13 13 13 13 12 12
6 6 6 6 6 5 6 6 7 7 8 8 9 10 10 11 12 13 13 13 14 14 14 14 14 14 14 14 14 14 14 14 14 14 14 14 13 13 13 13 13 13 13 13 13 13 13 12 12
6 6 5 5 5 5 6 6 6 7 8 8 8 9 10 11 12 12 13 13 13 13 14 14 14 13 13 13 13 13 13 13 13 13 13 13 13 13 13 13 13 13 13 13 13 12 12 12 12
5 4 4 4 4 5 6 6 6 7 7 7 8 9 9 10 11 12 12 13 13 13 13 13 13 13 13 13 13 13 13 13 13 13 13 13 13 13 13 13 13 13 13 13 12 12 12 12 12
5 5 4 5 5 5 5 6 6 7 7 7 8 8 9 10 11 11 12 12 12 13 13 13 13 13 13 13 13 13 13 13 13 13 13 13 13 13 13 13 13 13 13 12 12 12 12 12 11
5 4 4 3 4 4 5 5 6 7 7 6 7 7 8 9 10 10 11 11 12 12 12 12 13 13 13 13 12 12 12 12 12 12 12 13 12 12 12 12 12 12 12 12 12 12 12 11 11
5 4 4 4 4 5 5 5 5 6 6 6 5 6 7 8 9 10 10 11 11 11 12 12 12 12 12 12 12 12 12 12 12 12 12 12 12 12 12 12 12 12 12 12 11 11 11 11 11
5 5 4 3 4 4 5 6 6 6 6 5 5 6 7 7 8 9 9 10 10 11 11 11 11 11 11 12 12 12 12 12 12 12 12 12 12 12 12 11 11 11 11 11 11 11 10 10 10
5 5 4 4 4 3 4 5 6 5 5 5 5 6 7 7 8 8 9 9 9 10 10 10 10 11 11 11 11 11 11 11 11 11 11 11 11 11 11 11 11 11 10 10 10 10 10 10 9
Wind_Speed
6 3 1 2 2 5 12 8 5 6 6 4 4 5 6 7 6 5 2 12 17 18 21 24 24 23 22 21 20 19 19 18 19 19 19 20 20 20 20 20 20 20 20 21 20 20 19 19 19
2 0 1 2 7 11 10 8 7 7 6 3 2 3 3 4 2 5 8 11 18 18 20 22 25 24 23 21 20 19 19 18 18 19 19 19 20 20 20 19 20 20 20 20 20 19 18 17 17
2 1 3 4 9 15 9 7 10 7 3 1 2 2 3 3 4 7 8 16 17 16 19 22 25 24 23 22 21 20 19 18 18 18 18 19 19 19 20 20 20 20 20 19 19 17 17 16 16
1 1 2 6 14 12 8 5 6 6 3 2 3 2 1 1 4 6 14 18 18 15 18 23 25 24 23 22 21 20 19 19 19 18 18 19 19 19 20 20 19 19 19 18 17 17 16 16 15
2 2 6 9 13 8 8 6 5 5 5 3 3 3 2 2 4 12 17 18 18 16 16 22 25 24 23 22 21 20 20 19 19 19 19 19 19 20 20 19 19 19 18 17 17 16 16 15 14
2 3 7 12 12 8 8 7 4 4 4 2 2 2 1 2 9 15 17 17 16 16 15 20 24 24 23 21 20 20 20 19 19 19 19 20 20 20 19 19 18 18 17 17 16 15 15 14 14
3 3 7 9 9 9 8 5 6 5 4 5 2 1 1 4 8 13 14 15 14 14 13 14 19 22 22 21 20 19 19 19 19 19 18 19 19 19 19 18 18 17 16 16 15 14 14 13 13
3 2 5 7 8 8 5 4 4 6 5 2 2 3 3 6 10 13 13 13 14 12 12 11 14 17 17 18 19 18 18 18 18 18 18 19 19 18 17 16 16 16 15 14 14 13 12 12 11
3 3 7 7 6 4 2 2 1 2 2 2 0 1 2 7 12 14 13 13 14 13 11 11 11 13 15 15 17 17 17 17 17 17 18 17 15 15 14 15 15 14 14 13 12 11 11 10 10
4 5 6 4 3 2 3 1 1 1 2 1 1 3 1 8 13 16 16 17 17 16 13 11 11 12 13 13 13 14 14 14 14 15 15 13 13 13 13 14 13 13 12 11 11 10 9 9 8
3 4 3 4 4 3 3 3 1 4 3 3 2 0 2 7 9 14 16 16 16 16 14 12 12 12 11 9 11 10 11 11 12 14 14 13 12 11 11 10 10 10 10 8 8 7 7 6 5
2 2 4 4 3 2 3 3 1 1 3 4 4 4 5 7 10 12 14 15 14 15 14 12 11 11 10 10 9 9 9 9 10 12 14 12 9 8 8 8 8 8 7 7 6 6 5 4 4
3 3 3 3 3 3 3 3 2 3 4 1 1 2 5 6 7 8 10 11 12 14 15 14 12 12 10 10 9 9 9 9 11 12 13 13 9 7 7 7 7 7 7 7 5 5 4 3 2
2 2 4 3 2 2 3 5 2 4 2 1 1 1 3 4 4 4 7 10 12 13 14 13 13 12 10 9 8 8 10 11 12 12 13 14 12 9 7 6 6 6 7 7 6 5 3 2 2
1 1 3 2 1 2 1 3 4 4 1 2 2 2 2 2 2 5 7 8 10 12 12 13 13 12 12 11 10 9 10 11 10 11 14 14 13 12 9 6 5 7 8 7 5 4 2 2 2
1 1 1 2 0 1 2 4 4 2 3 3 4 3 3 3 2 4 5 6 7 9 11 12 12 13 13 11 10 9 10 11 10 12 13 15 14 13 10 6 6 9 8 6 4 3 2 2 2
2 0 1 2 1 1 2 3 3 2 3 3 4 4 3 3 3 3 4 5 6 8 10 11 11 12 12 11 9 8 9 9 10 11 12 14 14 14 11 7 7 9 7 4 4 3 3 3 3
2 1 1 1 2 1 2 2 3 3 1 2 3 3 4 4 5 3 4 4 5 7 8 10 10 11 10 9 7 6 7 7 8 9 11 13 13 14 12 8 8 8 5 4 4 4 3 3 3
2 1 1 1 2 1 1 2 4 2 1 1 2 3 4 5 4 3 3 3 4 6 7 9 10 9 9 8 8 8 8 7 7 7 10 13 13 13 11 7 7 7 6 6 6 4 3 3 2
1 1 0 2 2 1 1 3 3 3 2 3 3 3 4 4 3 3 2 3 5 7 7 8 8 8 9 8 7 5 6 6 7 6 8 12 12 13 11 8 7 7 6 6 6 5 3 3 3
3 1 0 0 2 4 3 4 3 3 2 2 2 2 2 3 4 3 2 3 4 6 8 8 8 8 8 7 5 4 4 3 4 5 6 7 10 11 10 9 6 6 6 7 6 6 6 4 3
1 2 1 2 3 2 3 2 4 3 3 3 3 2 2 3 3 3 3 3 3 4 4 5 6 7 7 8 8 9 8 7 6 6 5 5 7 8 9 9 8 7 6 6 6 6 5 4 4
0 1 3 3 3 2 3 1 5 3 2 4 3 3 3 3 3 4 4 3 2 1 2 4 5 5 5 7 8 8 6 5 4 5 6 6 5 7 8 9 8 7 6 6 6 6 6 5 4
1 4 5 4 3 2 1 1 4 2 3 4 3 3 3 3 3 3 3 2 1 1 1 2 3 3 4 5 6 7 8 7 6 7 7 7 5 5 6 7 7 6 6 6 6 6 6 6 5
5 4 4 4 4 2 2 1 4 5 4 4 5 5 4 3 3 3 4 3 2 1 1 1 3 3 4 5 5 6 8 8 8 7 8 6 5 5 7 6 6 5 5 5 5 5 5 5 5
2 3 4 3 1 2 2 2 5 5 5 4 2 2 3 4 3 4 3 3 2 2 1 0 2 2 3 4 4 4 5 4 5 6 6 6 6 6 6 6 5 5 5 5 5 4 4 4 5
3 2 2 4 1 1 3 5 6 4 6 7 6 5 4 4 5 5 5 4 3 2 2 1 0 0 1 2 3 2 3 4 6 6 6 5 4 4 6 6 6 5 5 5 5 4 4 4 3
3 3 3 3 2 1 4 3 4 7 8 8 7 6 5 5 5 5 5 4 3 2 1 2 1 1 1 1 2 2 2 2 3 4 5 5 4 4 6 5 5 5 4 4 4 3 3 3 2
2 2 3 3 3 3 1 4 3 4 4 5 6 5 5 4 5 5 4 4 3 3 2 2 1 0 1 1 2 2 1 1 2 3 4 5 5 5 6 5 5 5 4 4 4 3 4 4 3
1 2 3 2 1 2 2 4 4 1 3 4 6 6 6 6 5 5 4 4 4 3 3 2 1 1 0 1 2 2 2 2 3 3 3 4 5 5 5 5 5 5 4 4 5 5 4 4 4
Wind_Direction
294 307 93 97 161 208 229 224 205 194 200 201 184 172 176 179 173 199 132 145 142 148 152 152 150 147 144 140 136 135 134 133 132 132 132 132 131 130 128 126 125 122 119 116 114 112 110 107 105
279 216 110 159 199 216 229 216 218 212 189 164 183 180 183 220 188 132 140 149 144 147 150 152 150 148 145 142 139 138 137 136 135 134 134 135 133 132 129 128 126 123 120 117 114 112 112 111 109
279 192 177 191 210 216 220 205 217 231 229 174 186 195 189 204 164 158 156 148 143 145 149 152 150 148 146 144 142 140 140 139 139 137 135 135 134 132 130 128 126 124 120 118 116 115 114 114 113
112 139 190 215 225 221 216 207 206 211 232 222 175 214 225 236 169 158 149 148 144 144 148 152 150 149 147 146 145 143 142 141 139 137 136 136 135 132 130 128 126 124 122 120 118 117 116 114 113
106 171 209 221 232 234 230 231 205 204 195 200 172 194 240 341 128 142 150 149 148 146 148 153 151 150 149 148 147 145 144 141 141 139 139 138 136 133 130 130 130 128 126 123 121 120 118 116 115
169 184 212 220 228 238 235 235 222 230 214 202 169 191 241 113 138 149 152 150 149 147 149 154 153 151 150 150 149 148 145 144 143 142 140 138 136 135 134 134 135 134 131 126 124 122 121 118 117
184 205 217 220 223 236 234 217 210 215 228 214 179 174 205 145 151 149 149 146 146 147 150 150 153 152 151 151 151 150 148 146 145 143 141 139 138 139 139 139 139 137 134 130 127 126 123 120 119
177 228 225 218 216 232 243 210 211 210 227 229 154 170 197 162 151 144 143 145 147 150 152 149 150 151 151 151 152 151 149 148 145 142 138 138 140 141 141 141 141 139 136 132 130 129 126 123 122
145 225 230 218 212 226 252 202 252 254 200 246 197 180 249 155 152 147 149 151 155 157 157 153 150 149 148 151 154 151 150 148 144 140 139 137 138 139 140 142 142 140 139 136 134 131 127 123 122
169 219 237 232 231 263 303 226 211 174 203 235 347 13 90 155 163 162 163 165 165 166 165 159 155 152 150 154 151 149 148 145 141 143 141 139 138 139 142 144 145 144 142 139 135 131 125 120 119
191 216 258 274 274 290 306 321 309 160 187 208 196 227 162 168 170 176 171 171 170 167 168 165 161 157 155 152 151 149 147 146 144 146 145 144 140 140 143 145 146 146 143 137 133 125 126 126 128
239 252 260 286 295 288 282 298 347 194 220 225 201 185 182 187 183 187 179 173 170 168 170 169 165 163 160 156 157 154 154 156 157 157 154 151 149 149 153 155 157 155 153 146 142 140 140 138 142
241 272 279 270 281 282 274 267 266 285 275 226 148 161 188 190 197 196 182 177 173 175 174 172 170 168 164 159 162 163 165 167 167 166 166 163 162 162 165 166 168 168 165 162 159 155 154 153 160
222 270 304 290 262 281 258 269 266 285 293 107 137 184 216 207 205 190 184 181 183 180 176 172 174 174 168 167 168 169 172 172 172 175 177 174 172 172 171 172 176 180 180 177 174 171 169 177 187
206 297 314 312 255 264 219 266 245 271 210 171 216 230 253 252 232 211 193 190 189 184 178 177 175 178 175 173 174 176 176 175 179 183 183 182 180 179 176 175 183 191 188 181 174 172 171 189 208
1 39 304 312 236 257 139 252 274 277 160 194 219 229 239 262 260 244 206 193 194 184 181 184 182 180 182 181 177 179 179 179 183 185 187 188 188 185 180 181 190 191 184 179 171 168 179 207 218
34 270 253 310 20 86 163 245 304 9 166 212 228 235 237 268 282 273 231 205 201 192 186 188 186 182 186 183 178 179 179 182 183 185 188 191 190 188 185 189 192 185 178 178 177 174 177 201 222
185 209 224 264 334 102 180 258 310 341 140 217 237 239 240 252 265 264 244 218 203 199 193 192 188 184 183 182 176 174 178 182 180 184 190 189 192 190 188 190 187 179 174 181 181 183 184 193 205
181 154 199 272 330 42 208 276 287 292 311 260 254 245 247 254 265 274 238 210 207 204 200 197 193 188 182 185 184 185 188 185 183 186 189 191 193 191 189 191 183 181 188 191 184 175 182 195 164
74 87 49 16 14 25 336 287 275 282 251 228 234 260 252 260 290 288 263 207 205 207 205 202 201 192 191 195 189 186 178 182 186 185 189 191 190 189 191 187 190 187 188 187 185 177 169 179 166
38 87 37 33 15 25 18 324 306 299 300 299 269 262 280 264 271 282 272 245 213 205 205 206 205 199 198 194 181 169 155 151 174 189 195 191 187 187 187 186 184 186 189 194 192 185 179 186 191
29 328 72 86 73 5 33 328 307 303 315 291 280 281 298 291 284 286 284 279 241 222 195 192 199 202 202 195 189 188 192 192 196 190 190 183 185 189 188 184 183 185 190 189 188 185 185 177 193
92 20 66 67 82 41 24 50 299 338 322 291 279 285 300 294 282 286 289 283 268 226 184 173 181 194 198 196 190 189 194 197 181 170 179 187 185 187 190 189 186 186 188 191 186 185 188 192 193
74 60 53 47 59 30 312 169 298 303 284 302 312 312 300 297 299 302 313 328 343 30 82 137 154 183 185 186 185 185 190 189 176 181 191 193 189 194 195 189 188 186 185 188 190 189 191 197 196
49 75 47 25 24 290 303 226 266 292 298 283 291 300 305 299 309 323 335 345 344 1 46 125 146 190 197 183 189 192 194 187 185 191 196 192 193 201 202 191 190 188 185 182 180 187 196 198 197
67 106 130 146 197 304 334 264 274 302 326 335 329 339 353 340 339 333 335 343 342 353 359 21 150 195 200 187 193 197 190 180 180 186 186 188 197 201 191 183 179 179 173 175 179 189 197 195 203
98 82 144 123 90 5 308 305 314 349 13 16 17 20 17 360 352 350 348 345 342 353 357 322 185 215 218 183 178 194 186 183 185 184 184 180 183 179 171 171 172 170 166 170 176 183 189 191 201
96 130 90 94 98 356 319 312 307 328 346 358 6 7 6 6 358 359 353 347 341 343 3 24 53 192 215 171 172 184 186 195 181 165 168 166 166 159 150 153 154 154 153 152 154 154 152 155 162
68 73 88 100 123 146 297 292 279 281 330 344 348 352 354 356 349 347 341 338 342 357 11 23 17 47 134 157 155 148 150 141 144 153 159 156 146 147 146 148 147 144 139 137 139 140 141 143 137
168 168 148 139 186 158 168 279 315 328 354 359 359 357 356 356 349 344 339 345 354 0 5 8 11 7 324 165 147 146 137 132 137 148 149 144 141 142 139 139 136 134 133 136 143 144 143 147 151
Height
1487 1489 1491 1495 1497 1498 1493 1488 1483 1482 1482 1481 1482 1483 1484 1486 1489 1492 1485 1485 1489 1494 1500 1505 1508 1512 1515 1517 1520 1522 1524 1526 1528 1530 1533 1535 1537 1540 1542 1544 1546 1548 1549 1551 1553 1554 1555 1556 1557
1485 1487 1490 1491 1492 1493 1488 1482 1481 1478 1477 1479 1480 1481 1481 1482 1482 1482 1482 1485 1489 1494 1499 1504 1508 1512 1515 1517 1520 1522 1525 1527 1529 1532 1534 1536 1538 1541 1543 1545 1547 1549 1551 1552 1554 1556 1557 1558 1560
1483 1485 1487 1486 1484 1482 1481 1477 1477 1476 1476 1477 1478 1479 1480 1480 1480 1480 1481 1485 1490 1495 1499 1504 1508 1511 1514 1517 1520 1523 1525 1527 1530 1532 1535 1537 1539 1542 1544 1546 1548 1550 1552 1554 1556 1557 1559 1560 1562
1481 1483 1485 1484 1479 1475 1474 1474 1473 1475 1475 1476 1477 1478 1478 1479 1479 1479 1481 1485 1490 1494 1499 1504 1508 1511 1514 1517 1520 1523 1526 1528 1531 1533 1536 1538 1540 1542 1545 1547 1549 1551 1553 1555 1557 1559 1561 1562 1563
1479 1480 1481 1479 1476 1473 1471 1471 1472 1473 1473 1474 1475 1476 1476 1478 1478 1479 1482 1485 1489 1494 1500 1504 1508 1511 1514 1518 1520 1523 1526 1529 1531 1534 1536 1539 1541 1544 1546 1548 1551 1553 1555 1557 1559 1561 1562 1564 1565
1477 1476 1478 1475 1474 1470 1469 1469 1470 1471 1472 1473 1474 1475 1476 1477 1478 1480 1483 1486 1491 1494 1500 1504 1508 1512 1515 1518 1521 1524 1526 1529 1532 1535 1537 1540 1542 1545 1547 1549 1552 1554 1556 1558 1560 1562 1564 1565 1566
1476 1475 1473 1473 1473 1470 1467 1467 1468 1469 1470 1472 1473 1474 1475 1476 1478 1481 1483 1487 1492 1496 1500 1504 1508 1512 1515 1518 1521 1524 1527 1530 1533 1535 1538 1540 1543 1546 1548 1550 1553 1555 1557 1559 1561 1563 1565 1566 1567
1472 1474 1471 1471 1470 1468 1465 1465 1465 1467 1469 1471 1472 1473 1474 1476 1478 1481 1485 1488 1492 1496 1500 1504 1508 1511 1515 1518 1521 1524 1527 1530 1533 1536 1538 1541 1544 1546 1549 1551 1554 1556 1558 1560 1562 1564 1565 1567 1568
1471 1475 1470 1469 1467 1465 1464 1464 1465 1466 1467 1469 1470 1472 1473 1475 1477 1481 1484 1488 1492 1496 1500 1504 1507 1511 1515 1518 1521 1524 1528 1530 1533 1536 1539 1541 1544 1546 1549 1552 1554 1556 1558 1560 1562 1564 1566 1567 1569
1470 1471 1468 1465 1465 1464 1463 1463 1464 1466 1466 1469 1469 1470 1473 1474 1476 1478 1482 1486 1489 1494 1498 1502 1506 1510 1514 1517 1521 1524 1527 1530 1533 1535 1538 1541 1544 1546 1549 1552 1554 1557 1559 1561 1562 1564 1566 1567 1569
1467 1468 1466 1465 1464 1463 1463 1463 1463 1464 1467 1468 1469 1470 1472 1473 1475 1478 1480 1484 1488 1492 1497 1501 1505 1509 1513 1516 1520 1523 1526 1529 1532 1535 1538 1540 1543 1546 1549 1551 1554 1556 1558 1560 1562 1564 1566 1567 1569
1467 1466 1466 1464 1463 1463 1464 1464 1464 1464 1465 1466 1467 1469 1471 1472 1474 1476 1479 1483 1488 1491 1496 1500 1504 1508 1512 1515 1518 1522 1525 1528 1531 1534 1537 1540 1542 1545 1548 1551 1553 1556 1558 1560 1562 1564 1565 1567 1568
1466 1465 1464 1463 1462 1462 1463 1463 1464 1464 1464 1465 1466 1468 1471 1471 1473 1474 1477 1482 1486 1490 1495 1499 1503 1507 1511 1514 1517 1521 1524 1527 1530 1533 1536 1539 1542 1544 1547 1550 1552 1555 1557 1559 1561 1563 1565 1566 1567
1466 1465 1464 1463 1461 1462 1463 1463 1463 1463 1463 1464 1465 1468 1471 1471 1472 1474 1477 1481 1485 1489 1493 1497 1501 1505 1509 1512 1516 1520 1523 1526 1529 1532 1535 1538 1541 1543 1546 1549 1551 1554 1556 1558 1560 1562 1564 1565 1566
1464 1465 1464 1462 1461 1462 1463 1463 1462 1462 1463 1464 1466 1468 1470 1471 1472 1474 1476 1479 1483 1487 1491 1495 1499 1504 1508 1511 1515 1518 1522 1525 1528 1531 1534 1536 1539 1542 1545 1547 1550 1552 1554 1556 1559 1560 1562 1563 1564
1465 1466 1467 1463 1461 1461 1465 1464 1460 1460 1462 1464 1466 1468 1469 1470 1471 1473 1476 1478 1481 1486 1490 1494 1497 1501 1505 1509 1513 1517 1520 1523 1526 1529 1532 1535 1538 1540 1543 1545 1548 1550 1552 1554 1556 1558 1560 1561 1562
1468 1470 1467 1465 1462 1462 1464 1464 1461 1460 1461 1463 1465 1466 1467 1469 1471 1473 1475 1478 1481 1483 1488 1492 1495 1499 1503 1507 1511 1515 1518 1521 1524 1527 1530 1532 1535 1538 1541 1543 1546 1548 1550 1552 1554 1555 1557 1559 1560
1472 1470 1468 1467 1464 1463 1464 1464 1462 1461 1462 1463 1463 1465 1467 1468 1470 1471 1474 1476 1479 1482 1486 1490 1493 1497 1501 1505 1509 1512 1515 1518 1521 1524 1527 1530 1533 1535 1538 1541 1543 1545 1547 1549 1551 1553 1554 1556 1557
1468 1468 1469 1467 1464 1464 1464 1464 1463 1461 1462 1462 1463 1464 1466 1467 1468 1470 1472 1474 1477 1480 1484 1488 1491 1494 1498 1501 1504 1507 1510 1514 1518 1521 1524 1527 1530 1532 1535 1537 1540 1542 1544 1546 1548 1550 1551 1553 1554
1468 1469 1469 1467 1465 1465 1465 1464 1462 1461 1461 1461 1462 1463 1464 1466 1467 1469 1471 1473 1475 1477 1480 1484 1488 1491 1495 1498 1501 1505 1508 1511 1515 1518 1521 1524 1526 1529 1532 1534 1536 1538 1540 1542 1544 1546 1547 1549 1550
1470 1471 1470 1469 1467 1466 1467 1466 1463 1461 1460 1460 1461 1463 1464 1464 1465 1467 1469 1472 1474 1476 1478 1481 1484 1488 1491 1494 1498 1501 1505 1508 1511 1514 1516 1519 1522 1525 1528 1530 1532 1534 1537 1538 1540 1542 1544 1545 1547
1472 1471 1469 1468 1472 1475 1473 1475 1466 1463 1461 1460 1461 1461 1462 1463 1464 1466 1468 1470 1472 1475 1477 1479 1482 1485 1488 1490 1494 1496 1499 1502 1505 1509 1512 1515 1518 1521 1524 1526 1528 1530 1532 1534 1536 1538 1540 1542 1542
1473 1471 1471 1472 1474 1479 1478 1478 1471 1465 1463 1461 1461 1461 1462 1463 1464 1465 1467 1468 1470 1472 1474 1476 1479 1481 1484 1486 1489 1492 1495 1498 1501 1505 1508 1511 1513 1516 1519 1521 1523 1526 1528 1530 1532 1534 1536 1537 1538
1473 1474 1475 1478 1480 1484 1481 1481 1476 1469 1466 1462 1460 1460 1462 1463 1464 1464 1466 1467 1469 1471 1472 1474 1476 1478 1481 1483 1485 1488 1491 1494 1497 1500 1503 1506 1509 1511 1514 1517 1519 1521 1523 1525 1528 1530 1531 1532 1533
1476 1482 1489 1489 1492 1488 1482 1481 1476 1467 1465 1463 1461 1460 1461 1462 1462 1463 1464 1466 1467 1469 1471 1473 1474 1477 1478 1481 1482 1485 1488 1490 1492 1496 1499 1502 1504 1506 1509 1512 1514 1516 1518 1521 1523 1525 1526 1527 1528
1480 1483 1491 1493 1493 1489 1483 1481 1474 1466 1464 1462 1461 1461 1461 1461 1461 1462 1463 1464 1466 1468 1469 1471 1473 1475 1477 1478 1480 1482 1484 1486 1489 1492 1495 1498 1500 1503 1505 1507 1509 1511 1514 1516 1518 1519 1521 1522 1523
1481 1485 1486 1493 1495 1494 1487 1481 1472 1465 1464 1464 1462 1461 1461 1461 1462 1462 1463 1464 1465 1466 1468 1470 1471 1473 1475 1477 1479 1480 1481 1483 1486 1489 1492 1493 1496 1498 1501 1503 1504 1506 1508 1511 1513 1514 1515 1516 1517
1481 1483 1488 1491 1493 1492 1487 1484 1479 1470 1468 1466 1465 1463 1462 1462 1462 1462 1463 1463 1464 1465 1467 1468 1470 1471 1473 1474 1476 1478 1479 1481 1482 1485 1487 1489 1492 1494 1495 1498 1499 1501 1503 1505 1507 1509 1510 1511 1512
1484 1485 1487 1492 1494 1495 1492 1485 1474 1472 1470 1468 1466 1465 1464 1463 1463 1463 1463 1463 1463 1463 1464 1466 1467 1469 1470 1471 1473 1475 1476 1478 1479 1481 1483 1485 1487 1489 1491 1493 1495 1496 1498 1500 1502 1503 1505 1506 1506
1483 1484 1487 1491 1494 1497 1496 1489 1473 1472 1470 1469 1467 1466 1465 1464 1464 1463 1462 1462 1462 1462 1463 1464 1465 1466 1467 1468 1470 1471 1473 1474 1476 1477 1479 1481 1483 1485 1486 1489 1490 1492 1493 1495 1497 1498 1499 1500 1501